Regional Weather Roundup
Issued by NWS

Home | Current Version | Previous Version | Graphics & Text | Print | Product List | Glossary On
Versions: 1 2 3 4 5 6 7 8 9 10 11 12 13 14 15 16 17 18 19 20 21 22 23 24 25 26 27 28 29 30 31 32 33 34 35 36 37 38 39 40 41 42 43 44 45 46 47 48 49 50
000
ASUS43 KIND 290809
RWRIN

WEATHER ROUNDUP FOR INDIANA
NATIONAL WEATHER SERVICE INDIANAPOLIS IN
400 AM EDT SUN MAR 29 2015

NOTE: "FAIR" INDICATES FEW OR NO CLOUDS BELOW 12,000 FEET WITH NO
SIGNIFICANT WEATHER AND/OR OBSTRUCTIONS TO VISIBILITY.

* - STATION DOES NOT REPORT WEATHER SUCH AS PRECIPITATION OR FOG.

+ - STATION NOT QUALITY CONTROLLED BY THE NATIONAL WEATHER SERVICE.
    USE DATA WITH CAUTION...ESPECIALLY DEWPOINT AND RELATIVE
    HUMIDITY OBSERVATIONS.

INZ001>003-010>013-019-020-290900-
NORTHWEST INDIANA

CITY           SKY/WX    TMP DP  RH WIND       PRES   REMARKS
GARY /AIRPORT/ CLEAR     28  13  53 S7        30.25F WCI  20
KNOX *+          N/A     23   5  46 S8        30.26F WCI  14
LA PORTE +     CLEAR     24  18  78 S3        30.26F
MICHIGAN CITY+ CLEAR     27  10  50 S8        30.25F WCI  18
MONTICELLO +   CLEAR     28  17  62 S7        30.28F WCI  21
RENSSELAER +   CLEAR     28  21  74 S8        30.27F WCI  20
VALPARAISO     CLEAR     22  14  71 S6        30.26F WCI  14

$$

LMZ046-743>745-290900-
SOUTHERN LAKE MICHIGAN

STATION/POSITION TIME  TEMP WIND        PRES
                       AIR  DIR/SP/G
                 (UTC) (F)  (DEG/KT/KT) (MB)
BURNS HARBOR     0800   27  180/ 10/ 15 1024.7F
MICHIGAN CITY    0800   27  140/ 10/ 13   N/A

$$

INZ004-005-014>016-021>024-290900-
NORTH CENTRAL INDIANA

CITY           SKY/WX    TMP DP  RH WIND       PRES   REMARKS
GOSHEN         CLEAR     23  14  68 S7        30.27F WCI  15
LOGANSPORT +   CLEAR     27  19  74 S8        30.30F WCI  18
PERU/GRISSOM   CLEAR     25  17  70 SE7       30.28F WCI  17
ROCHESTER +    CLEAR     30  19  64 S8        30.28F WCI  23
SOUTH BEND     CLEAR     21  13  71 CALM      30.27F
WARSAW +       CLEAR     25  16  68 S5        30.28F WCI  19

$$

INZ006>009-017-018-025>027-290900-
NORTHEAST INDIANA

CITY           SKY/WX    TMP DP  RH WIND       PRES   REMARKS
ANGOLA *+      CLEAR     18  14  86 CALM      30.26F
AUBURN +       CLEAR     23  14  68 CALM      30.29F
FORT WAYNE     CLEAR     22  15  75 S7        30.31S WCI  13
HUNTINGTON +   CLEAR     25  11  56 S5        30.30F WCI  19

$$

INZ028-029-035-036-043>045-051>053-290900-
WEST CENTRAL INDIANA

CITY           SKY/WX    TMP DP  RH WIND       PRES   REMARKS
CRAWFORDSVL +  CLEAR     25  13  61 SE8       30.29F WCI  16
GREENCASTLE +  CLEAR     23  12  63 S5        30.30F WCI  17
LAFAYETTE      CLEAR     27  16  63 SE6       30.29F WCI  20
TERRE HAUTE    CLEAR     27  18  69 SE7       30.31F WCI  19

$$

INZ030>032-037>040-046>048-054>057-064-065-290900-
CENTRAL INDIANA

CITY           SKY/WX    TMP DP  RH WIND       PRES   REMARKS
CP ATTERBURY + CLEAR     21  19  93 CALM      30.34F
FISHERS *+     CLEAR     23  18  80 S7        30.32  WCI  15
FRANKFORT +    CLEAR     25  20  81 SE6       30.30F WCI  18
GREENWOOD *+   CLEAR     27  12  54 SE6       30.32F WCI  20
INDIANAPOLIS   CLEAR     24  15  68 SE8       30.29F WCI  15
-EAGLE CREEK   CLEAR     24  16  71 SE3       30.30F
KOKOMO *+        N/A     27  18  69 S10       30.30F WCI  17
MARION +       CLEAR     25  16  68 S8        30.31S WCI  16
MT COMFORT *+  CLEAR     25   9  50 S6        30.32S WCI  18
SHELBYVILLE    CLEAR     27  17  66 SE7       30.32F WCI  19
ZIONSVILLE +   CLEAR     25  16  67 SE6       30.30F WCI  18

$$

INZ033-034-041-042-049-050-058-059-290900-
EAST CENTRAL INDIANA

CITY           SKY/WX    TMP DP  RH WIND       PRES   REMARKS
MUNCIE         CLEAR     25  14  63 S7        30.31F WCI  17

$$

INZ060-061-067>069-081>083-085>088-290900-
SOUTHWEST INDIANA

CITY           SKY/WX    TMP DP  RH WIND       PRES   REMARKS
EVANSVILLE     CLEAR     28  21  75 CALM      30.33F
HUNTINGBURG *+ CLEAR     28  16  59 SE5       30.34S WCI  23
WASHINGTON +   CLEAR     28  22  76 S5        30.32F WCI  23

$$

INZ062-063-066-070>080-084-089>092-290900-
SOUTH CENTRAL AND SOUTHEAST INDIANA

CITY           SKY/WX    TMP DP  RH WIND       PRES   REMARKS
BEDFORD +      CLEAR     27  18  69 SE5       30.33F WCI  21
BLOOMINGTON    CLEAR     27  15  61 S6        30.31F WCI  20
NORTH VERNON + CLEAR     27  14  59 SE5       30.34F WCI  21
SEYMOUR +      CLEAR     23  18  80 CALM      30.35S

$$




USA.gov is the U.S. government's official web portal to all federal, state and local government web resources and services.